Showing default

EXPLORER 25 (INJUN-4), 932

Orbit data source: Space-Track

EXPLORER 25 (INJUN-4), 932 is a payload satellite owned by NASA LaRC (US) in LEO that was launched on Sat, 21 Nov 1964 UTC via an SCOUT X-4 launch vehicle from the Air Force Western Test Range (AFWTR). Payload-class satellites include a variety of spacecraft equipped with specific instruments for various scientific and technological missions. These include communications satellites like Starlink; space stations such as the ISS; scientific satellites like the Hubble; Earth observation satellites from companies like Planet Labs, Umbra, and HawkEye 360; GPS; miniature CubeSats for education and research; and military/defense satellites.

Loading next visibility...
Identifier
932, 1964-076B
Orbit
LEO
Country
Flag of USUS
Related business
Manufacturer
BENDX/UIA
Mission
Spacecraft
Bus & Motor
BENDIX UTILITY, Unknown motor
Mass
41 kg wet, 41 kg dry
Launch date (UTC)
1964-11-21 (62 years ago)
Launch vehicle
SCOUT X-4
Launch site
Air Force Western Test Range (AFWTR)
Object type
Payload
Rocket body
Debris
Shape & HBR
POLY, 0.3 m
Radar Cross Section
Medium (>0.1 m² and <1 m²)

Expand to show TLE details & history
Last TLE update: 15 hours ago

TLE from 15 hours ago
0 EXPLORER 25 (INJUN-4)
1 00932U 64076B   26208.40086378  .00001172  00000-0  40969-3 0  9993
2 00932  81.3424 347.5194 1118560 177.0964 183.7423 12.67261556824224
Epoch: 2026-07-27T09:37Z
TLE epoch observation values (Epoch: 2026-07-27T09:37:14.630Z)
Latitude
-0.00002°
Longitude
-101.87654°
Altitude
2,263.78 km
Speed
6.402 km/s
True Right ascension
23h 10m 04s
True Declination
0° 00' 00"
Sunlit
Object was in full shadow at epoch
Visualization orbit readout
Latitude
Unknown
Longitude
Unknown
Altitude
Unknown
Speed
Unknown
Apparent Right ascension
Unknown
Apparent Declination
Unknown
Sunlit
N/A
Visualization observer readout
Local Sidereal Time
14:23:53
Azimuth
Unknown
Elevation
Unknown
Doppler factor
Unknown
Orbital elements
Apogee altitude
2,259.39 km
Perigee altitude
521.469 km
Semi-major axis
7,768.566 km
Eccentricity
0.11186
Inclination
81.3424°
RAAN
347.5194°
Arg. of periapsis
177.0964°
True anomaly
183.00855°
Mean anomaly
183.7423°
Eccentric anomaly
183.36601°
Mean motion
3.1698 °/min
Orbital period
113.57 mins
BSTAR
0.00040969
Loading maneuver chart data...
Computing Atmospheric mass density...
Loading historical data...
Loading historical data...
Loading historical data...
Loading historical data...
Loading historical data...
Loading historical data...
Loading historical data...

Documentation

Showing up to 5 results
|